Vorticity
5 4 4 6 6 7 5 7 6 2 2 4 10 5 4 6 7 6 10 8 8 11 10 7 5 8 9 11 9 8 8 7 8 8 10 6 8 3 4 3 4 7 8 8 9 9 8
4 2 3 6 6 7 6 5 6 6 6 7 -0 5 3 5 6 6 9 6 6 7 9 11 9 7 10 8 10 11 10 11 8 8 8 8 6 6 6 6 5 6 7 6 6 7 8
1 4 2 6 6 5 6 4 3 6 2 1 8 1 15 4 6 7 7 6 8 11 11 8 8 6 5 7 6 7 8 8 7 8 7 7 8 6 6 6 6 6 5 5 7 8 8
-0 6 2 3 8 7 5 2 5 6 8 5 6 12 3 11 5 7 6 6 6 7 7 7 7 9 8 7 6 5 7 8 8 9 8 5 3 6 6 6 6 9 9 8 5 4 5
4 3 3 1 8 6 6 5 4 4 1 6 7 3 7 3 11 6 9 7 6 6 6 7 3 5 6 8 7 8 10 10 10 8 4 5 9 7 8 7 7 6 6 7 4 6 7
4 6 6 2 6 5 7 4 4 6 2 5 6 9 8 11 13 8 9 11 10 3 4 1 1 3 5 7 6 9 11 9 1 10 8 5 6 8 8 6 6 6 3 5 6 6 5
1 3 5 4 2 7 3 8 5 5 2 5 8 7 6 -8 8 13 8 11 8 10 6 1 2 6 1 6 8 17 3 3 7 5 6 7 7 4 3 5 6 4 5 4 4 6 4
6 10 8 1 12 6 7 9 4 8 5 3 6 8 3 1 4 12 8 10 8 12 15 6 4 5 6 12 15 4 4 10 8 6 6 5 4 6 7 7 6 4 3 3 4 5 5
7 9 7 5 9 5 4 9 3 9 4 6 4 1 3 6 6 -0 7 10 8 11 14 12 6 6 9 11 -0 10 7 6 6 5 6 6 6 7 6 6 6 6 6 7 7 6 6
10 9 6 8 4 6 1 4 2 10 4 4 -0 2 10 14 5 1 5 9 10 9 11 8 9 7 9 3 8 5 9 7 8 9 9 8 7 8 9 8 7 8 6 8 8 8 7
8 -1 -2 7 4 2 6 9 10 3 1 5 0 -1 4 5 11 11 3 4 8 11 7 8 14 2 3 7 3 6 12 12 9 4 3 4 7 9 7 5 5 5 6 8 7 7 6
4 4 11 8 8 2 10 7 8 8 4 7 9 11 5 9 9 9 7 4 10 8 8 1 2 9 6 4 5 4 0 1 2 4 5 4 5 4 1 2 5 3 2 -0 5 4 5
10 10 9 8 10 9 9 8 7 11 11 6 5 5 4 21 3 4 2 4 11 14 9 4 8 9 1 6 8 5 3 3 2 4 3 6 5 6 4 4 2 1 3 2 3 4 4
12 11 8 9 3 7 7 8 6 10 6 6 19 21 6 12 11 10 5 5 5 9 12 8 6 7 6 6 6 7 2 2 2 1 2 3 6 4 4 1 3 2 4 5 4 5 1
-4 -6 -1 11 8 9 7 4 10 13 14 12 12 0 5 13 9 14 12 8 7 9 9 9 5 8 7 6 5 5 4 3 0 1 2 3 4 4 7 4 6 3 3 6 4 6 4
12 15 13 7 4 2 4 9 9 4 4 4 4 -1 3 4 7 7 10 9 14 10 11 9 7 11 8 5 5 6 2 2 2 2 3 3 4 2 3 5 4 6 2 7 3 5 5
11 9 8 11 13 14 12 10 8 14 7 6 11 8 -4 -0 1 7 7 18 13 12 11 14 6 5 10 5 5 4 3 4 3 3 2 2 2 3 6 5 4 6 6 6 9 9 5
12 12 11 11 14 10 9 12 14 5 16 6 -6 2 -1 1 8 12 2 -9 17 15 5 14 12 5 10 10 6 6 7 3 6 5 3 4 5 3 5 6 4 8 6 10 7 7 7
7 10 9 9 9 7 11 8 -1 2 13 7 8 17 20 0 10 -5 0 20 14 18 13 8 13 15 13 11 12 10 8 6 5 5 3 3 4 3 4 5 7 8 6 8 6 11 10
5 9 9 9 10 12 16 3 4 12 13 9 20 2 3 5 13 2 7 -1 2 3 19 8 4 10 12 10 10 10 10 7 4 4 3 6 5 6 8 3 7 12 9 9 11 13 1
7 7 5 5 5 5 9 10 7 14 13 5 17 5 8 7 13 17 21 20 5 1 4 18 12 4 14 7 12 11 6 5 4 3 4 8 5 7 7 6 9 9 8 11 13 7 12
8 9 8 6 5 4 2 4 9 7 5 18 20 -9 7 -7 -18 -14 12 -1 -5 7 8 -4 16 7 9 14 13 10 11 9 4 5 6 7 4 5 7 8 8 9 13 15 10 11 13
11 10 9 9 8 8 7 7 4 2 4 8 6 10 18 3 11 12 2 -5 4 7 11 15 12 10 6 8 11 11 10 7 6 5 8 6 4 9 7 8 5 6 19 4 9 17 11
10 12 10 9 9 11 12 11 10 10 9 6 4 6 5 13 19 -5 -12 -8 7 5 -3 10 14 14 13 13 11 11 10 7 6 7 8 5 10 10 8 9 2 8 13 12 10 14 11
10 10 12 11 9 9 14 14 14 15 12 10 10 10 6 11 6 15 14 11 -1 16 -2 11 10 13 12 8 5 5 3 5 8 9 7 12 12 9 6 6 8 14 13 13 8 12 11
8 9 11 10 12 11 10 12 13 15 14 11 9 10 9 10 8 8 8 20 3 12 9 17 11 12 10 6 3 8 6 10 9 11 11 10 12 11 12 6 8 14 15 10 6 8 19
8 8 8 10 12 14 11 11 12 11 12 12 9 9 9 10 9 16 16 13 6 1 2 13 7 5 8 10 11 11 9 10 10 8 13 10 12 11 8 7 9 12 10 12 9 19 8
5 6 7 7 8 9 11 13 14 14 17 15 11 13 13 14 13 14 20 18 -3 11 8 1 7 16 9 12 15 14 6 9 13 12 11 14 10 12 10 10 10 17 14 13 15 12 12
6 6 8 8 4 5 8 10 21 20 21 20 15 14 13 12 2 1 8 7 5 8 9 9 11 20 16 -1 8 13 14 11 8 9 13 11 11 10 12 13 11 13 15 12 13 13 12
Height
5816 5814 5814 5813 5812 5811 5809 5808 5806 5805 5804 5803 5802 5800 5798 5795 5793 5793 5791 5789 5787 5786 5785 5782 5781 5781 5781 5781 5781 5781 5781 5782 5782 5782 5783 5783 5784 5784 5784 5784 5784 5784 5785 5785 5785 5784 5783
5813 5813 5812 5810 5809 5808 5806 5805 5804 5802 5800 5800 5798 5798 5796 5794 5792 5791 5789 5787 5785 5784 5783 5782 5780 5779 5778 5779 5778 5778 5778 5778 5778 5779 5779 5780 5780 5780 5780 5780 5780 5779 5780 5779 5779 5778 5777
5809 5808 5808 5807 5806 5805 5803 5802 5801 5800 5798 5796 5795 5793 5793 5791 5790 5788 5787 5786 5784 5782 5781 5780 5779 5777 5775 5776 5775 5775 5774 5775 5775 5775 5775 5775 5775 5776 5775 5775 5774 5774 5774 5773 5772 5771 5771
5805 5804 5804 5803 5802 5802 5801 5799 5798 5796 5796 5794 5793 5790 5788 5788 5787 5785 5784 5783 5781 5780 5778 5777 5776 5775 5773 5771 5771 5771 5770 5770 5770 5770 5770 5770 5770 5770 5769 5769 5768 5767 5767 5765 5764 5763 5762
5800 5800 5799 5798 5798 5798 5796 5795 5794 5792 5792 5791 5789 5788 5785 5784 5783 5782 5781 5779 5778 5777 5776 5774 5773 5772 5771 5769 5767 5767 5766 5765 5765 5765 5765 5765 5765 5764 5764 5762 5762 5761 5760 5758 5757 5754 5752
5794 5794 5795 5794 5793 5792 5791 5790 5789 5788 5787 5786 5785 5784 5782 5780 5778 5777 5777 5776 5775 5773 5773 5772 5770 5770 5768 5766 5763 5761 5761 5761 5761 5761 5761 5760 5759 5758 5757 5756 5755 5754 5752 5750 5748 5747 5743
5788 5788 5788 5788 5787 5786 5785 5785 5784 5784 5783 5781 5780 5779 5779 5777 5774 5773 5772 5772 5772 5771 5768 5767 5766 5764 5762 5760 5759 5757 5757 5757 5756 5756 5755 5754 5753 5752 5751 5750 5748 5746 5744 5742 5739 5737 5734
5782 5782 5781 5780 5780 5779 5778 5778 5779 5778 5778 5777 5775 5774 5773 5772 5771 5769 5767 5765 5765 5765 5764 5762 5760 5759 5757 5755 5753 5753 5753 5752 5750 5749 5749 5749 5747 5746 5744 5742 5740 5738 5735 5732 5730 5726 5723
5773 5774 5774 5774 5774 5773 5773 5772 5772 5772 5771 5771 5770 5769 5767 5766 5765 5764 5762 5760 5759 5758 5757 5757 5755 5754 5752 5751 5749 5748 5747 5745 5744 5742 5741 5740 5740 5738 5736 5734 5732 5730 5727 5723 5720 5715 5710
5765 5766 5766 5766 5767 5767 5766 5766 5765 5765 5765 5765 5764 5763 5761 5760 5760 5757 5755 5755 5752 5751 5752 5753 5751 5748 5746 5744 5743 5741 5739 5739 5737 5735 5733 5732 5730 5729 5727 5725 5723 5719 5715 5712 5708 5704 5699
5757 5758 5759 5758 5757 5758 5758 5758 5758 5758 5759 5758 5757 5756 5755 5753 5751 5751 5751 5748 5746 5745 5744 5746 5744 5742 5739 5739 5737 5735 5733 5731 5729 5728 5728 5726 5722 5720 5718 5716 5712 5709 5704 5700 5696 5692 5688
5749 5750 5750 5750 5750 5749 5749 5750 5750 5750 5750 5750 5749 5748 5748 5746 5744 5743 5741 5740 5740 5740 5737 5739 5737 5735 5734 5732 5730 5728 5727 5726 5723 5722 5720 5717 5715 5712 5709 5705 5701 5698 5694 5690 5685 5679 5674
5739 5740 5743 5743 5743 5741 5741 5742 5742 5742 5742 5742 5741 5740 5739 5737 5738 5736 5735 5734 5734 5732 5732 5731 5729 5727 5726 5725 5723 5721 5720 5719 5717 5714 5712 5709 5706 5703 5700 5696 5691 5687 5682 5676 5670 5663 5656
5731 5731 5733 5734 5735 5734 5733 5733 5734 5734 5733 5733 5733 5732 5730 5729 5729 5728 5727 5726 5725 5724 5723 5721 5720 5719 5718 5717 5715 5713 5711 5709 5707 5704 5701 5698 5696 5693 5690 5686 5681 5675 5670 5665 5656 5651 5643
5723 5723 5724 5725 5725 5726 5725 5725 5726 5725 5724 5724 5725 5724 5722 5721 5720 5720 5719 5717 5715 5715 5714 5711 5710 5708 5709 5708 5705 5703 5701 5700 5698 5695 5692 5687 5684 5681 5677 5673 5669 5662 5658 5651 5643 5636 5628
5715 5715 5716 5717 5716 5716 5717 5716 5717 5717 5716 5715 5716 5716 5714 5712 5711 5709 5709 5709 5706 5704 5703 5702 5701 5700 5699 5698 5695 5693 5690 5690 5687 5684 5680 5677 5672 5669 5665 5660 5655 5649 5644 5636 5628 5619 5611
5704 5707 5708 5709 5708 5708 5708 5708 5708 5707 5707 5707 5706 5706 5707 5704 5702 5701 5700 5698 5697 5696 5695 5693 5692 5689 5689 5687 5685 5682 5680 5679 5675 5672 5668 5664 5660 5658 5652 5648 5641 5636 5630 5622 5614 5607 5596
5694 5696 5698 5698 5700 5700 5699 5699 5699 5699 5699 5698 5696 5696 5697 5695 5694 5692 5690 5689 5689 5686 5685 5683 5681 5679 5677 5676 5673 5670 5669 5666 5664 5660 5656 5652 5646 5643 5639 5632 5626 5620 5613 5605 5597 5591 5580
5686 5687 5688 5689 5690 5691 5690 5691 5690 5690 5689 5688 5687 5686 5685 5684 5684 5683 5681 5679 5677 5676 5673 5672 5669 5668 5665 5663 5660 5659 5657 5655 5651 5647 5643 5639 5633 5628 5623 5618 5610 5604 5597 5589 5583 5573 5566
5677 5678 5679 5680 5681 5681 5681 5681 5681 5681 5679 5679 5677 5675 5676 5675 5674 5672 5670 5669 5667 5666 5662 5660 5658 5656 5653 5650 5648 5645 5644 5641 5637 5634 5630 5624 5620 5615 5609 5602 5595 5588 5580 5574 5566 5557 5547
5669 5669 5670 5670 5671 5672 5673 5672 5672 5671 5669 5668 5668 5667 5666 5664 5665 5662 5659 5659 5657 5654 5653 5649 5647 5644 5640 5637 5634 5632 5630 5626 5623 5619 5615 5609 5605 5600 5593 5586 5578 5571 5564 5559 5551 5541 5532
5658 5661 5661 5662 5661 5662 5662 5662 5662 5660 5659 5657 5656 5656 5656 5655 5654 5651 5648 5649 5646 5642 5640 5638 5635 5631 5628 5624 5621 5618 5615 5612 5609 5605 5599 5594 5588 5583 5577 5570 5562 5554 5550 5543 5535 5526 5517
5648 5650 5651 5652 5651 5651 5651 5652 5651 5649 5647 5646 5646 5646 5644 5643 5642 5639 5638 5636 5634 5631 5629 5625 5622 5618 5615 5611 5607 5604 5601 5597 5594 5589 5583 5577 5571 5565 5560 5553 5546 5540 5539 5529 5520 5513 5503
5640 5640 5640 5641 5641 5641 5641 5639 5638 5638 5637 5635 5634 5633 5632 5631 5629 5626 5625 5623 5621 5618 5615 5612 5608 5605 5602 5597 5593 5590 5587 5583 5578 5573 5566 5560 5553 5547 5542 5536 5529 5526 5522 5515 5505 5498 5490
5632 5631 5631 5631 5630 5631 5630 5628 5627 5626 5624 5623 5622 5620 5618 5618 5616 5614 5612 5610 5608 5605 5602 5598 5595 5592 5588 5584 5580 5576 5573 5568 5563 5556 5550 5543 5536 5529 5523 5519 5515 5509 5505 5498 5488 5485 5479
5622 5621 5621 5622 5621 5619 5618 5618 5616 5613 5612 5610 5608 5607 5605 5604 5604 5601 5599 5596 5595 5592 5589 5585 5581 5578 5574 5570 5565 5561 5557 5552 5546 5541 5535 5528 5520 5514 5507 5500 5495 5493 5487 5478 5471 5468 5466
5613 5613 5612 5611 5610 5609 5607 5606 5604 5601 5599 5598 5595 5593 5592 5591 5590 5588 5586 5584 5582 5579 5576 5571 5568 5564 5559 5555 5550 5546 5542 5535 5530 5525 5519 5512 5506 5497 5489 5481 5480 5477 5469 5463 5456 5457 5446
5605 5604 5603 5602 5600 5598 5596 5594 5591 5589 5587 5584 5582 5580 5580 5578 5576 5574 5571 5570 5568 5565 5561 5558 5554 5549 5544 5540 5535 5531 5525 5520 5515 5510 5503 5498 5490 5485 5475 5466 5462 5461 5453 5447 5442 5435 5431
5596 5596 5594 5592 5591 5590 5586 5583 5579 5576 5573 5571 5569 5567 5566 5566 5565 5562 5560 5558 5555 5552 5549 5543 5541 5535 5530 5526 5520 5514 5510 5504 5499 5495 5488 5482 5476 5470 5465 5455 5446 5442 5435 5430 5425 5419 5415